Weather in Kaikoura

New Zealand     42°23′47″S   173°40′51″E
temp.,
°C
wind,
m/s
gust,
m/s
humid.,
%
clouds,
%
prec.,
mm/h
press.,
hPa
HPBL,
m
24 april, sat
sat2400:00+16w226718 0.0 100412
03:00+15w336842 0.0 100427
06:00+14sw56771 0.0 1005164
09:00+14sw45720 0.0 1007167
12:00+13s55780 0.0 1008209
15:00+14ese12804 0.0 1007148
18:00+14ne228111 0.0 1007163
21:00+14nne1280100 0.1 1007128
25 april, sun
sun2500:00+13ne448390 0.6 1007246
03:00+12wsw1114772 1.0 1007719
06:00+12sw68730 1.0 1007407
09:00+12w11685 0.0 1007219
12:00+13ne45730 0.0 1006245
15:00+13ne44722 0.0 1004170
18:00+14nne227099 0.0 100556
21:00+15wsw56660 0.0 1007154
26 april, mon
mon2600:00+12s8874100 0.1 10101118
03:00+11s557393 0.3 1010781
06:00+11e337648 0.6 1010606
09:00+12ne667387 0.1 1010827
12:00+13ne88740 0.1 1007488
15:00+14ne99700 0.0 1003378
18:00+14ne33711 0.0 100252
21:00+15w58581 0.0 1003129
27 april, tue
tue2700:00+12ssw13147895 0.0 1006909
03:00+10ssw10978100 1.6 10091153
06:00+9s8884100 4.4 10121113
09:00+9s7786100 5.0 10151012
12:00+8wsw678197 10.2 1016952
15:00+10sw886683 1.1 10161342
18:00+10ssw676599 1.3 10171116
21:00+10ssw556499 0.6 10181068
28 april, wed
wed2800:00+10sw226224 0.8 1018871
03:00+9w216320 0.1 1018602
06:00+10nne236222 0.1 1018740
09:00+10ne55655 0.0 1018878
12:00+11ne54650 0.0 1018614
15:00+12ne33620 0.0 1017431
18:00+12nne33645 0.0 1018415
21:00+12nnw33673 0.0 1019201